sat.trackr.live / text

‹ back to catalog

STARLINK-4180

NORAD 53278 · 2022-086AN

PAYLOAD ACTIVE UNKNOWN

§ Identity

Operator
Country
US
Launch date
2022-07-24
Launch site
AFETR
Launch vehicle
Mass (kg)
RCS (m²)

Purposes: comms

External: N2YO · Heavens-Above · Gunter

§ Orbital elements

Epoch: 2026-09-19T08:25:19.755840Z

Period
94.01 min
Inclination
53.1608°
Eccentricity
0.0001099
Mean motion
15.31700460 rev/d
Perigee alt
470.0 km
Apogee alt
471.5 km
Semi-major
6,848.9 km
B*
-4.5353e-6
RAAN
21.2211°
Arg perigee
87.0720°
Mean anomaly
273.0407°
Rev number
23,061

§ Raw data

STARLINK-41801 53278U 22086AN  26262.35092310 -.00000506  00000+0 -45353-5 0  99912 53278  53.1608  21.2211 0001099  87.0720 273.0407 15.31700460230614

JSON: /api/v1/satellites/53278 · /tle

For live sub-satellite position, see the globe view (requires WebGL).

§ Visibility from observer

Set your observer location to see the next 7 days of passes ≥ 10°. The values pass through the URL so the page stays shareable.

No JS? Fill the form by hand. The geolocation button needs JavaScript.